Phoenix, AZ

1:21 PM MST on December 06, 2016 (GMT -0700)
Phoenix Sky Harbor International

Weather History for KPHX - November, 2013

Change the Weather History Date:

Monday, November 11, 2013

  Actual Average Record
Temperature  
Mean Temperature 74 °F 66 °F  
Max Temperature 90 °F 78 °F 91 °F (1934)
Min Temperature 58 °F 54 °F 35 °F (1935)
Degree Days  
Heating Degree Days 0 2  
Month to date heating degree days 0 14  
Since 1 July heating degree days 1 20  
Cooling Degree Days 9 3  
Month to date cooling degree days 57 48  
Year to date cooling degree days 4969 4584  
Growing Degree Days 24 (Base 50)    
Moisture  
Dew Point 38 °F    
Average Humidity 31    
Maximum Humidity 47    
Minimum Humidity 15    
Precipitation  
Precipitation 0.00 in 0.01 in 1.41 in (1931)
Month to date precipitation T 0.21  
Year to date precipitation 5.60 6.71  
Snow  
Snow 0.00 in - - ()
Month to date snowfall 0.0  
Year to date snowfall 0.0  
Since 1 July snowfall 0.0  
Snow Depth 0.00 in    
Sea Level Pressure  
Sea Level Pressure 29.98 in    
Wind  
Wind Speed 3 mph (West)    
Max Wind Speed 9 mph    
Max Gust Speed 13 mph    
Visibility 10 miles    
Events      
T = Trace of Precipitation, MM = Missing Value Source: NWS Daily Summary

Daily Weather History Graph

Daily Weather History Graph

Search for Another Location

Airport or City:

Trip Planner

Search our weather history database for the weather conditions in past years. The results will help you decide how hot, cold, wet, or windy it might be!

Date:

Astronomy

Nov. 11, 2013 Rise Set
Actual Time 6:55 AM MST 5:27 PM MST
Civil Twilight 6:29 AM MST 5:53 PM MST
Nautical Twilight 5:59 AM MST 6:23 PM MST
Astronomical Twilight 5:30 AM MST 6:53 PM MST
Moon 1:54 PM MST (11/11) 1:02 AM MST (11/11)
Length of Visible Light 11h 24m
Length of Day
10h 31m
Waxing Gibbous, 67% of the Moon is Illuminated
Nov 11
Waxing Gibbous
Nov 17
Full
Nov 25
Last Quarter
Dec 2
New
Dec 9
First Quarter

Hourly Weather History & Observations

Time (MST) Temp. Dew Point Humidity Pressure Visibility Wind Dir Wind Speed Gust Speed Precip Events Conditions
12:51 AM 64.9 °F 39.9 °F 40% 29.97 in 10.0 mi Calm Calm - N/A   Partly Cloudy
1:51 AM 64.0 °F 37.9 °F 38% 29.98 in 10.0 mi SW 3.5 mph - N/A   Partly Cloudy
2:51 AM 62.1 °F 39.0 °F 43% 29.97 in 10.0 mi Calm Calm - N/A   Partly Cloudy
3:51 AM 61.0 °F 39.0 °F 44% 29.97 in 10.0 mi Calm Calm - N/A   Partly Cloudy
4:51 AM 61.0 °F 39.9 °F 46% 29.98 in 10.0 mi Calm Calm - N/A   Clear
5:51 AM 59.0 °F 39.0 °F 48% 29.99 in 10.0 mi Calm Calm - N/A   Clear
6:51 AM 60.1 °F 37.9 °F 44% 30.01 in 10.0 mi East 3.5 mph - N/A   Clear
7:51 AM 62.1 °F 37.9 °F 41% 30.03 in 10.0 mi Calm Calm - N/A   Clear
8:51 AM 68.0 °F 37.0 °F 32% 30.04 in 10.0 mi East 3.5 mph - N/A   Clear
9:51 AM 73.0 °F 36.0 °F 26% 30.04 in 10.0 mi Calm Calm - N/A   Clear
10:51 AM 78.1 °F 36.0 °F 22% 30.03 in 10.0 mi Calm Calm - N/A   Clear
11:51 AM 81.0 °F 35.1 °F 19% 30.00 in 10.0 mi North 4.6 mph - N/A   Clear
12:51 PM 84.9 °F 35.1 °F 17% 29.96 in 10.0 mi Calm Calm - N/A   Clear
1:51 PM 87.1 °F 35.1 °F 16% 29.93 in 10.0 mi Calm Calm - N/A   Clear
2:51 PM 89.1 °F 36.0 °F 15% 29.91 in 10.0 mi NW 6.9 mph - N/A   Clear
3:51 PM 89.1 °F 36.0 °F 15% 29.91 in 10.0 mi West 5.8 mph - N/A   Clear
4:51 PM 89.1 °F 36.0 °F 15% 29.91 in 10.0 mi WNW 6.9 mph - N/A   Clear
5:51 PM 84.9 °F 37.0 °F 18% 29.92 in 10.0 mi WSW 6.9 mph - N/A   Clear
6:51 PM 80.1 °F 37.9 °F 22% 29.95 in 10.0 mi WSW 3.5 mph - N/A   Clear
7:51 PM 82.0 °F 37.9 °F 21% 29.96 in 10.0 mi NW 8.1 mph - N/A   Clear
8:51 PM 78.1 °F 39.9 °F 25% 29.98 in 10.0 mi Calm Calm - N/A   Clear
9:51 PM 73.0 °F 41.0 °F 31% 29.99 in 10.0 mi SE 3.5 mph - N/A   Clear
10:51 PM 73.0 °F 39.9 °F 30% 30.00 in 10.0 mi Calm Calm - N/A   Clear
11:51 PM 68.0 °F 39.9 °F 36% 30.01 in 10.0 mi SW 3.5 mph - N/A   Clear